This is the latest recevied weather packets stored in our database for station/object K4ZZR. If no packets are shown the sender has not sent any weather packets the latest 10 day(s).
| Time | Temp. | Humidity | Pressure | Rain* | Wind** | Luminosity | Snow |
|---|---|---|---|---|---|---|---|
| 1777979832 | 23.33° C | 87% | 1014.6 hPa | 0 mm | - | 26 W/m² | - |
| 1777979528 | 23.33° C | 87% | 1014.4 hPa | 0 mm | - | 27 W/m² | - |
| 1777979224 | 23.33° C | 87% | 1014.6 hPa | 0 mm | - | 23 W/m² | - |
| 1777978922 | 23.33° C | 87% | 1014.4 hPa | 0 mm | - | 18 W/m² | - |
| 1777978618 | 23.33° C | 86% | 1014.4 hPa | 0 mm | - | 9 W/m² | - |
| 1777978314 | 23.33° C | 86% | 1014.2 hPa | 0 mm | - | 6 W/m² | - |
| 1777978011 | 23.33° C | 87% | 1014.4 hPa | 0 mm | - | 3 W/m² | - |
| 1777977709 | 23.33° C | 86% | 1014.2 hPa | 0 mm | - | 2 W/m² | - |
| 1777977404 | 23.33° C | 86% | 1014.1 hPa | 0 mm | - | 1 W/m² | - |
| 1777977102 | 23.33° C | 86% | 1014.2 hPa | 0 mm | - | 0 W/m² | - |
| 1777976799 | 23.33° C | 87% | 1014 hPa | 0 mm | - | 0 W/m² | - |
| 1777976497 | 23.33° C | 86% | 1014 hPa | 0 mm | - | 0 W/m² | - |
| 1777976196 | 23.33° C | 86% | 1013.9 hPa | 0 mm | - | 0 W/m² | - |
| 1777975892 | 23.33° C | 86% | 1013.7 hPa | 0 mm | - | 0 W/m² | - |
| 1777975588 | 22.78° C | 86% | 1013.9 hPa | 0 mm | - | 0 W/m² | - |
| 1777975285 | 23.33° C | 86% | 1013.8 hPa | 0 mm | - | 0 W/m² | - |
| 1777974981 | 22.78° C | 87% | 1013.8 hPa | 0 mm | - | 0 W/m² | - |
| 1777974678 | 23.33° C | 86% | 1013.8 hPa | 0 mm | - | 0 W/m² | - |
| 1777974374 | 23.33° C | 86% | 1013.4 hPa | 0 mm | - | 0 W/m² | - |
| 1777974071 | 23.33° C | 86% | 1013.3 hPa | 0 mm | - | 0 W/m² | - |
| 1777973767 | 23.33° C | 86% | 1013.3 hPa | 0 mm | - | 0 W/m² | - |
| 1777973464 | 23.33° C | 86% | 1013.4 hPa | 0 mm | - | 0 W/m² | - |
| 1777973161 | 23.33° C | 86% | 1013.6 hPa | 0 mm | - | 0 W/m² | - |
| 1777972860 | 23.33° C | 86% | 1013.6 hPa | 0 mm | - | 0 W/m² | - |
| 1777972556 | 23.33° C | 85% | 1013.2 hPa | 0 mm | - | 0 W/m² | - |
* Rain latest hour (hover to see other rain measurements)
** Current wind speed in m/s (hover to see current wind gust speed)